Wind_Speed
3 4 4 7 5 4 3 4 4 3 5 5 7 2 10 10 10 13 11 9 9 9 13 13 12 12 13 16 19 21 23 25 28 30 32 32 33 27 27 28 28 27 27 27
5 3 4 3 4 3 3 3 3 1 3 4 3 8 5 13 6 14 14 10 11 9 8 12 10 10 12 14 17 19 19 22 24 26 25 24 25 25 23 29 29 28 28 26
5 1 2 2 1 3 1 4 3 2 1 1 3 6 3 3 5 9 7 8 8 10 8 8 9 9 10 13 15 17 18 21 22 24 25 26 25 27 26 32 32 31 29 29
2 1 3 2 3 4 2 4 2 3 3 4 2 5 2 3 5 6 8 8 8 8 7 10 8 8 9 10 13 15 16 20 22 23 25 26 26 24 28 30 30 32 30 29
4 5 3 3 3 1 4 2 2 1 2 4 2 1 2 6 4 7 7 8 7 7 7 9 9 7 7 9 12 16 19 23 24 25 24 25 25 26 28 27 27 26 26 25
1 1 1 1 2 2 4 4 6 4 3 1 5 6 4 5 4 11 5 7 9 7 8 11 8 6 7 10 14 19 21 22 23 23 23 23 24 26 24 26 26 26 26 27
2 1 1 1 2 4 3 4 3 4 2 5 1 2 2 2 2 11 15 12 8 8 7 8 6 6 8 11 14 17 20 22 24 26 27 27 29 28 26 25 24 26 27 27
5 4 3 2 1 3 3 5 4 5 3 4 3 6 3 1 5 9 13 11 8 7 6 8 5 4 7 10 15 20 22 23 26 28 29 30 32 31 29 28 30 29 28 29
4 2 1 3 2 1 2 2 1 1 1 2 4 2 3 4 5 9 12 10 7 6 6 5 3 6 9 13 17 20 22 24 27 28 30 32 32 33 33 34 32 31 31 31
4 1 1 1 2 2 3 3 3 2 3 5 5 5 5 9 10 10 10 8 6 5 4 2 4 7 10 15 18 21 24 27 28 30 31 29 33 33 34 34 34 35 36 35
4 3 1 1 5 7 2 2 1 2 4 4 4 5 2 7 13 14 9 8 7 5 2 3 6 7 12 17 21 23 26 27 30 31 32 33 34 34 35 34 35 36 37 37
5 4 5 7 1 1 1 4 5 4 4 4 2 5 4 3 7 9 9 7 4 2 1 4 5 9 16 21 24 25 27 29 29 31 30 31 33 34 34 35 37 37 38 38
6 2 1 4 2 1 4 5 4 4 3 7 4 6 1 4 7 6 8 6 3 0 3 4 7 14 18 21 24 26 28 28 30 30 30 32 33 34 34 36 37 37 38 39
3 3 6 7 4 5 5 6 6 6 4 6 8 6 6 6 7 5 5 4 2 3 4 3 10 16 18 22 23 26 27 29 29 30 31 33 34 35 36 38 38 38 38 40
5 6 3 4 5 3 5 5 8 10 11 10 14 8 4 12 8 6 5 3 2 4 3 5 7 15 19 21 25 26 25 27 30 31 32 33 35 36 37 38 38 39 39 40
0 2 3 3 4 5 6 9 12 13 12 8 2 8 2 3 4 6 6 3 3 3 4 6 10 16 18 21 21 23 26 27 28 31 33 35 36 37 38 39 39 40 41 41
6 5 3 3 3 6 8 13 16 3 1 3 7 5 6 5 6 4 4 4 4 3 5 5 11 15 19 22 24 26 28 31 31 31 34 35 36 38 39 40 41 41 41 42
6 6 3 2 2 3 4 2 3 3 2 2 4 5 5 5 4 2 3 5 3 4 5 9 13 18 22 27 27 28 29 31 30 32 34 35 37 39 41 41 41 42 41 42
2 4 3 3 3 7 1 4 5 5 5 6 8 4 3 5 4 3 4 3 2 3 8 12 17 19 25 27 28 29 30 30 30 32 34 37 38 40 41 42 43 45 44 44
3 4 3 3 3 6 4 3 3 3 4 6 5 7 6 5 1 3 4 1 2 6 9 16 18 22 24 26 28 28 29 29 30 34 37 40 39 40 40 43 44 46 45 43
3 1 8 5 4 7 3 5 4 5 4 6 6 6 6 4 3 4 1 1 5 8 14 15 18 19 23 25 26 26 28 29 34 37 38 40 41 39 41 42 44 43 41 42
7 7 4 4 4 9 6 5 6 3 3 5 5 5 5 4 4 2 2 4 8 10 14 17 18 20 25 25 25 26 28 33 37 37 39 40 41 41 41 41 41 41 39 36
4 4 5 8 5 1 10 2 3 4 6 5 6 4 5 5 3 2 1 4 7 11 14 15 17 20 24 26 25 26 34 36 36 38 39 39 41 39 39 40 39 38 35 32
3 2 2 3 3 5 5 3 4 3 5 6 5 6 5 4 3 1 2 5 8 12 13 16 18 19 22 27 29 29 32 35 34 36 37 38 37 40 40 38 36 33 33 31
2 5 5 1 1 4 3 4 6 6 7 7 8 5 5 5 2 1 1 5 8 10 12 14 17 17 23 28 30 30 33 34 35 35 36 35 34 37 38 35 35 35 33 37
4 5 4 4 8 3 3 11 9 8 7 7 6 5 5 5 3 2 3 4 8 10 16 16 18 20 26 27 29 31 34 35 33 34 33 34 34 34 34 35 38 39 37 36
Wind_Direction
22 83 198 212 190 172 148 186 199 237 184 143 212 238 182 170 150 162 155 140 133 124 121 105 88 70 58 50 41 34 29 24 18 16 9 4 0 359 359 355 354 353 351 350
33 210 208 162 166 169 185 199 262 326 133 162 175 254 170 179 173 166 149 147 140 135 124 113 95 73 55 45 37 29 25 19 14 10 6 2 353 349 349 345 346 346 344 343
156 228 147 180 186 168 107 172 202 203 68 309 76 286 120 96 81 113 116 130 131 140 137 123 99 75 54 41 29 21 18 9 5 1 357 354 351 345 342 341 339 339 338 336
204 149 163 160 191 141 203 181 157 146 104 233 154 274 229 149 89 107 131 140 138 137 129 125 109 83 58 37 22 13 4 1 358 357 355 353 348 338 331 330 330 330 332 331
251 161 165 180 206 186 218 113 102 115 120 22 254 89 256 112 169 156 158 148 151 149 140 123 107 88 59 27 9 1 357 357 355 350 348 343 336 330 327 323 320 319 319 317
110 13 72 201 75 44 133 88 39 52 94 304 225 170 218 191 190 168 165 163 157 146 125 120 101 74 37 8 1 356 350 347 344 342 338 335 328 325 316 318 314 312 312 310
5 227 27 79 106 16 90 69 321 338 354 232 67 158 289 353 285 180 167 167 159 144 134 123 87 47 15 2 352 348 343 338 340 340 338 336 332 327 318 312 307 306 305 303
170 304 157 23 69 194 171 156 167 254 232 277 319 239 242 314 334 138 144 143 138 139 133 111 91 39 0 347 348 344 341 336 337 337 334 332 330 324 317 311 308 303 299 296
158 262 24 57 35 84 180 193 173 73 54 23 241 260 229 125 95 122 135 141 148 131 126 117 54 7 352 348 343 341 337 333 333 332 331 328 323 318 315 312 307 302 299 297
192 162 247 214 141 56 167 162 72 6 257 260 267 256 227 194 172 162 162 154 144 147 136 89 12 352 346 342 338 335 333 332 330 329 327 318 316 316 312 308 303 302 300 297
150 126 203 101 204 182 125 213 94 125 169 208 290 257 28 187 180 178 166 155 160 154 120 351 346 343 340 338 337 333 331 330 328 328 325 318 313 311 308 303 301 299 298 296
185 143 195 206 92 43 231 216 157 141 239 249 215 266 351 8 165 152 150 144 148 145 0 331 333 339 341 338 334 330 328 328 327 324 315 309 308 307 303 300 299 298 295 294
180 191 58 322 15 66 204 199 164 124 100 209 157 263 91 70 92 120 138 155 155 50 335 325 338 342 338 331 327 325 325 325 325 320 313 309 307 305 302 300 299 298 296 294
118 174 196 198 176 134 192 205 183 153 154 231 217 266 202 186 154 154 154 156 197 272 297 310 331 332 327 324 321 322 324 326 321 316 311 307 306 305 303 302 300 299 297 294
148 207 189 265 237 238 216 198 196 199 220 208 260 221 227 182 175 180 185 204 250 325 324 323 311 317 316 316 321 327 324 320 320 313 309 307 307 307 305 304 303 301 298 294
171 200 123 285 283 221 246 230 237 229 236 259 323 267 206 120 128 160 180 205 301 294 306 303 307 307 309 318 322 322 320 318 317 312 311 311 310 310 307 306 305 303 299 295
154 142 113 259 360 326 284 217 224 190 56 168 220 226 166 149 165 182 210 228 248 293 301 297 298 309 321 328 326 322 321 321 318 315 313 312 312 310 309 308 306 302 300 297
146 138 136 231 30 238 243 177 167 152 226 208 105 153 164 159 148 172 195 160 224 279 280 292 315 330 334 333 331 328 325 318 318 315 313 314 313 311 310 309 306 303 302 299
28 138 154 185 210 311 297 204 178 164 255 194 147 150 140 123 80 318 175 159 233 273 317 330 337 335 331 333 335 329 321 321 319 316 316 314 313 311 310 308 306 304 303 299
83 61 146 138 209 244 241 185 139 124 299 177 160 165 151 135 106 246 160 254 347 347 347 337 336 332 331 335 333 325 320 321 317 317 315 313 313 310 308 307 305 305 301 299
138 134 209 199 224 283 188 148 163 90 249 152 162 158 151 174 184 144 138 57 355 351 343 337 332 327 327 330 329 320 320 318 319 317 316 314 314 311 310 308 306 306 308 307
168 152 182 152 202 264 143 81 172 184 68 131 141 156 162 135 129 110 75 3 355 346 338 335 331 326 328 332 329 321 318 325 324 320 317 316 316 316 314 312 313 314 313 312
195 186 177 189 206 141 176 99 130 144 141 157 140 153 145 147 155 119 6 344 335 331 329 329 327 323 331 335 331 322 330 331 324 321 319 319 319 320 319 320 319 318 321 319
213 183 154 143 181 167 155 107 122 126 132 139 136 138 134 142 142 100 332 334 327 331 329 330 327 326 323 333 336 335 335 335 325 321 320 321 323 325 324 325 325 323 326 325
159 138 160 21 27 94 206 178 147 117 112 108 114 127 132 131 135 145 290 307 317 319 326 330 323 325 324 335 335 343 344 338 329 324 323 325 326 326 325 328 327 333 334 339
188 174 179 217 177 161 194 163 141 135 148 143 131 129 124 140 170 220 275 303 313 325 331 330 330 334 334 334 339 347 348 343 331 324 327 327 330 327 329 330 331 338 343 346
Height
826 838 843 838 837 833 834 838 838 835 836 843 850 849 865 870 876 882 889 895 899 901 903 904 904 904 903 902 900 898 896 894 890 886 883 880 879 877 875 873 872 868 864 861
836 839 830 827 829 830 832 837 839 837 837 841 844 846 856 863 869 876 887 895 897 900 902 903 903 903 903 902 901 900 897 895 893 890 888 885 882 877 875 872 869 866 864 860
836 829 825 827 830 833 837 839 838 839 838 839 843 850 864 866 874 881 889 893 896 898 900 903 903 903 904 903 902 901 900 898 895 892 889 884 880 876 873 869 867 864 861 859
829 826 827 830 831 833 836 836 836 839 848 857 845 862 854 870 882 888 893 894 897 899 900 902 903 904 904 904 903 901 899 897 895 892 889 885 882 878 875 871 867 863 859 855
831 832 831 833 830 831 836 836 839 841 850 857 852 865 852 875 882 891 895 896 897 898 899 901 903 903 903 902 901 900 898 896 893 891 888 885 882 879 873 868 864 860 858 853
831 830 831 831 834 834 837 840 852 862 866 876 847 851 857 872 865 882 892 896 896 898 900 901 902 902 902 901 900 898 895 892 890 888 886 883 880 875 869 865 861 857 853 850
833 833 834 833 836 837 839 850 863 865 874 854 845 854 848 871 871 870 883 891 894 895 897 898 899 900 900 899 898 896 893 890 888 886 884 880 876 872 867 860 857 853 849 845
848 844 838 838 840 841 846 849 861 843 860 851 850 843 844 876 875 868 878 887 892 895 896 896 898 898 898 897 895 893 891 889 886 883 880 876 872 868 863 857 852 847 843 839
843 834 842 843 842 843 843 851 849 852 862 873 852 860 874 878 881 881 884 888 892 895 896 896 896 895 894 894 894 892 890 886 882 877 872 869 866 861 856 850 846 841 836 832
832 836 843 843 841 844 842 846 857 870 856 851 847 841 826 874 879 881 884 890 894 894 893 893 894 895 895 894 892 889 886 882 877 872 868 865 861 855 849 844 838 833 828 824
832 835 844 843 848 845 854 852 853 861 867 863 858 840 856 861 869 876 883 887 891 893 894 895 895 894 894 891 888 885 881 877 873 868 863 860 855 849 843 837 832 826 820 815
833 844 849 840 849 849 848 847 853 866 852 871 869 853 873 873 869 875 884 889 893 892 893 892 892 892 890 888 885 883 879 874 868 863 859 854 849 843 837 831 824 818 812 806
833 844 858 836 846 848 847 846 848 861 870 855 881 833 878 880 880 883 889 891 891 891 891 891 890 889 888 886 883 879 874 868 862 858 854 848 841 836 830 823 816 810 803 796
829 842 831 829 817 839 845 845 846 849 880 832 843 829 880 884 886 889 891 891 892 892 891 891 890 888 887 884 881 875 869 864 859 855 848 842 836 829 822 815 808 801 794 787
833 838 845 839 835 834 832 831 842 846 833 838 804 832 873 873 886 892 891 892 889 890 890 890 889 888 886 882 877 871 865 859 855 850 844 836 829 822 814 806 799 792 785 777
840 836 839 840 836 843 840 840 835 833 827 840 838 849 888 888 889 887 887 887 889 888 889 890 888 886 883 878 873 867 862 855 850 845 837 830 822 815 807 798 790 782 774 766
841 843 850 844 848 845 838 838 830 834 842 841 841 860 883 879 878 885 886 887 889 889 889 888 887 885 880 875 869 864 858 852 845 838 831 824 817 808 799 791 781 772 763 755
841 840 846 862 850 862 836 855 861 855 865 877 868 873 876 877 877 885 885 888 889 889 887 886 883 880 877 872 867 861 855 851 842 835 827 819 811 802 792 782 773 762 754 744
834 831 843 848 857 834 850 854 853 850 851 873 866 873 877 876 883 889 884 885 885 886 885 884 880 876 871 869 863 857 851 845 840 831 823 814 806 796 786 774 764 753 743 732
837 838 832 850 842 841 846 849 851 864 856 865 866 870 873 877 885 882 882 884 884 883 882 879 877 874 871 865 861 856 848 840 835 827 818 809 800 791 780 768 756 745 733 722
843 842 832 836 848 844 847 849 852 858 850 860 863 867 872 876 876 878 881 881 880 879 878 877 873 870 866 860 856 852 845 838 831 822 813 803 793 785 773 761 748 736 724 714
827 837 847 847 852 843 843 851 847 850 857 858 863 866 869 871 874 875 877 878 877 876 874 874 871 869 867 860 854 847 841 835 826 817 807 797 788 778 766 754 742 731 719 707
819 814 824 827 823 838 837 838 844 846 849 857 861 865 865 868 872 874 876 876 877 876 874 871 866 862 858 857 851 845 837 830 822 812 802 793 782 772 761 749 737 725 714 703
821 822 819 825 835 836 838 842 843 845 848 853 857 861 865 869 872 874 875 876 876 875 872 871 866 860 856 853 847 842 834 827 819 809 799 789 779 767 756 746 735 723 712 699
820 823 825 835 841 840 839 838 841 847 852 856 860 863 865 869 872 873 873 873 874 870 866 864 865 857 854 849 844 838 831 824 815 806 796 786 776 766 754 745 733 723 713 703
821 819 820 815 821 825 827 833 840 847 852 856 859 863 865 869 872 872 872 871 872 870 870 863 859 854 851 847 841 835 829 822 814 804 794 785 776 765 755 743 729 721 712 702